STARLINK-32330, 61850

Orbit data source: Space-Track

STARLINK-32330, 61850 is a payload satellite owned by SpaceX/Seattle (US) in LEO that was launched on Thu, 07 Nov 2024 UTC via an FALCON 9 launch vehicle from the Air Force Eastern Test Range (AFETR). Payload-class satellites include a variety of spacecraft equipped with specific instruments for various scientific and technological missions. These include communications satellites like Starlink; space stations such as the ISS; scientific satellites like the Hubble; Earth observation satellites from companies like Planet Labs, Umbra, and HawkEye 360; GPS; miniature CubeSats for education and research; and military/defense satellites.

Loading next visibility...
Identifier
61850, 2024-202F
Orbit
LEO
Country
Flag of USUS
Related business
Manufacturer
SpaceX/Seattle
Mission
Operational Commercial Communications
Bus & Motor
STARLINK V2M, Unknown motor
Mass
730 kg wet, ~700 kg dry
Launch date (UTC)
2024-11-07 (1 year ago)
Launch vehicle
FALCON 9
Launch site
Air Force Eastern Test Range (AFETR)
Object type
Payload
Rocket body
Debris
Shape & HBR
Box + 2 Pan, 17.7 m
Radar Cross Section
33.884 m², Large (>1 m²)

Expand to show TLE details & history
Last TLE update: 7 hours ago

TLE from 7 hours ago
0 STARLINK-32330
1 61850U 24202F   26035.41996662  .00000433  00000-0  25254-4 0  9991
2 61850  43.0017  65.5173 0001227 267.3606  92.7105 15.27578129 70251
Epoch: 2026-02-04T10:04Z
TLE epoch observation values (Epoch: 2026-02-04T10:04:45.115Z)
Latitude
-0.00005°
Longitude
139.74245°
Altitude
482.87 km
Speed
7.626 km/s
True Right ascension
04h 22m 04s
True Declination
0° 00' 00"
Sunlit
Object was in daylight at epoch
Visualization orbit readout
Latitude
Unknown
Longitude
Unknown
Altitude
Unknown
Speed
Unknown
Apparent Right ascension
Unknown
Apparent Declination
Unknown
Sunlit
N/A
Visualization observer readout
Local Sidereal Time
18:57:52
Azimuth
Unknown
Elevation
Unknown
Doppler factor
Unknown
Orbital elements
Apogee altitude
485.842 km
Perigee altitude
484.157 km
Semi-major axis
6,863.137 km
Eccentricity
0.00012
Inclination
43.0017°
RAAN
65.5173°
Arg. of periapsis
267.3606°
True anomaly
92.72454°
Mean anomaly
92.7105°
Eccentric anomaly
92.71752°
Mean motion
3.81733 °/min
Orbital period
94.31 mins
BSTAR
0.000025254
Loading maneuver chart data...
Computing Atmospheric mass density...
Loading historical data...
Loading historical data...
Loading historical data...
Loading historical data...
Loading historical data...
Loading historical data...
Loading historical data...

Documentation

Showing up to 5 results
|